Tracking 18957 objects as of 22-Jan-2018
HD Live streaming from Space Station
objects crossing your sky now

COSMOS 2221

Track COSMOS 2221 now!
10-day predictions
COSMOS 2221 is classified as:


NORAD ID: 22236
Int'l Code: 1992-080A
Perigee: 600.6 km
Apogee: 624.0 km
Inclination: 82.5 °
Period: 96.8 minutes
Semi major axis: 6983 km
RCS: 7.493 m2 (large)
Launch date: November 24, 1992
Source: Commonwealth of Independent States (former USSR) (CIS)
Launch site: PLESETSK MISSILE AND SPACE COMPLEX (PKMTR)
aabbcc
Your satellite tracking list
Your tracking list is empty




NASA's NSSDC Master Catalog

Two Line Element Set (TLE):
1 22236U 92080A   18021.48440788  .00000171  00000-0  15995-4 0  9991
2 22236  82.5063 213.0712 0016696   0.6877 359.4360 14.87688374359770
Source of the keplerian elements: AFSPC